Location: Borealis Mine
(38.3824°N, 118.7610°W)
Time: 18:10:54
(UTC+00:00)

N. Korean satellite - Pass Details

Date: 23 January 2022
Orbit: 438 x 478 km, 97.3° (Epoch: 21 May)

Event Time Altitude Azimuth Distance (km) Brightness Sun altitude
Rises 13:33:59 0° 3° (N) 2,628 10.2 -18.2°
Reaches altitude 10° 13:36:10 10° 355° (N) 1,740 9.2 -17.7°
Maximum altitude 13:39:40 39° 286° (WNW) 786 7.1 -17.1°
Enters shadow 13:40:03 37° 270° (W) 803 7.1 -17.0°
Exits shadow 13:41:50 20° 228° (SW) 1,236 8.3 -16.7°
Drops below altitude 10° 13:43:09 10° 217° (SW) 1,725 9.1 -16.4°
Sets 13:45:19 0° 210° (SSW) 2,601 10.1 -16.0°
